Total_Precipitation_Accumulation
1.85 1.91 2.26 2.04 1.92 2.11 2.33 2.36 2.57 2.70 2.52 2.43 2.42 2.36 2.44 2.82 2.93 2.83 2.75 2.91 3.32 3.85 4.23 4.37 4.42 4.33 4.31 4.15 3.50 2.97 2.60 2.58 2.59 2.55 2.44 2.35 2.42 2.62 2.70 2.84 2.86 2.13 2.02
1.63 1.81 2.05 1.98 1.88 2.09 2.29 2.38 2.51 2.59 2.50 2.41 2.35 2.37 2.55 2.88 2.87 2.77 2.72 2.88 3.16 3.62 3.87 3.79 3.74 3.59 3.44 3.25 2.91 2.69 2.66 2.76 2.90 2.91 2.98 2.77 2.82 2.91 2.79 2.81 2.93 2.14 2.10
1.63 1.68 1.74 1.86 1.74 1.87 2.03 2.06 2.18 2.45 2.61 2.58 2.32 2.31 2.55 2.81 2.99 3.10 3.04 3.03 3.23 3.62 3.80 3.65 3.42 3.25 3.06 2.92 2.66 2.57 2.58 2.84 3.16 3.41 3.70 2.79 2.34 2.89 2.82 2.77 2.49 2.02 1.99
1.29 1.32 1.43 1.68 1.68 1.68 1.83 1.91 2.00 2.18 2.38 2.43 2.30 2.22 2.44 2.72 2.93 3.11 3.15 3.06 3.21 3.57 3.91 3.79 3.49 3.31 3.06 2.80 2.61 2.58 2.66 2.96 3.21 3.65 3.46 2.48 1.83 2.27 2.53 2.44 2.13 1.82 1.75
1.17 1.22 1.54 1.66 1.61 1.60 1.65 1.73 1.88 1.97 2.07 2.18 2.21 2.30 2.53 2.78 2.99 3.08 3.01 2.99 3.08 3.34 3.67 3.78 3.35 2.93 2.69 2.59 2.66 2.77 2.87 3.13 3.38 3.30 2.59 2.59 2.48 2.41 2.28 2.18 2.03 1.76 1.61
1.27 1.28 1.49 1.63 1.51 1.52 1.56 1.60 1.77 1.86 1.96 2.14 2.24 2.33 2.65 2.88 2.99 3.00 2.81 2.74 2.89 3.04 3.27 3.35 3.00 2.55 2.43 2.53 2.71 2.87 3.09 3.31 3.22 2.48 2.18 2.26 2.13 2.27 2.26 2.17 1.99 1.77 1.62
1.14 1.31 1.46 1.52 1.36 1.35 1.36 1.45 1.67 1.81 1.94 2.15 2.23 2.38 2.66 2.92 3.02 3.01 2.86 2.95 2.93 3.00 3.13 2.97 2.74 2.57 2.69 2.70 2.76 2.85 3.13 3.29 2.67 2.16 2.28 2.46 2.16 2.16 2.40 2.37 2.12 1.84 1.55
1.01 1.20 1.42 1.44 1.28 1.23 1.30 1.43 1.58 1.77 1.92 2.09 2.16 2.32 2.63 2.94 2.96 2.75 2.73 2.90 2.79 2.90 2.97 2.79 2.58 2.47 2.62 2.70 2.68 2.81 2.99 2.87 2.15 1.87 1.99 2.13 1.88 2.10 2.52 2.50 2.31 2.08 1.73
1.05 1.17 1.30 1.38 1.31 1.26 1.37 1.57 1.70 1.78 1.95 2.12 2.15 2.32 2.72 2.93 2.91 2.73 2.66 2.70 2.71 2.84 2.68 2.52 2.53 2.38 2.41 2.62 2.66 2.83 2.91 2.79 2.12 1.92 1.72 1.83 1.80 2.13 2.55 2.47 2.29 2.19 1.88
1.17 1.27 1.27 1.34 1.24 1.19 1.33 1.70 1.94 2.02 2.16 2.32 2.41 2.57 2.98 3.06 2.99 2.80 2.55 2.59 2.62 2.63 2.58 2.53 2.52 2.45 2.47 2.70 2.90 3.05 2.97 2.52 1.96 1.82 1.79 1.69 1.88 2.33 2.68 2.54 2.42 2.33 2.11
1.38 1.49 1.43 1.47 1.28 1.30 1.36 1.67 2.03 2.17 2.37 2.64 2.85 3.15 3.46 3.54 3.22 3.15 2.76 2.91 2.88 2.80 2.86 2.87 2.85 2.81 2.72 2.89 3.20 3.22 2.85 2.40 2.34 2.01 1.85 1.78 2.12 2.58 2.83 2.85 2.73 2.61 2.44
1.61 1.45 1.47 1.55 1.43 1.54 1.53 1.82 2.39 2.45 2.67 2.94 3.10 3.28 3.51 3.65 3.65 3.17 3.36 3.72 3.73 3.70 3.73 3.74 3.73 3.45 2.95 2.76 3.20 3.54 2.89 2.68 2.56 2.17 1.92 2.04 2.37 2.78 2.96 3.03 2.75 2.65 2.57
1.61 1.47 1.58 1.71 1.83 1.89 2.16 1.98 2.18 2.60 2.93 3.06 3.24 3.49 3.64 3.44 3.38 3.31 3.64 4.16 4.26 4.18 4.13 4.12 4.09 3.51 3.22 3.27 3.45 3.45 3.06 2.92 2.68 2.31 2.41 2.58 2.78 3.21 3.34 3.13 2.87 2.71 2.53
2.09 2.08 2.05 2.24 2.49 2.50 2.27 2.23 2.11 2.22 2.51 2.92 3.24 3.21 3.43 3.80 3.81 3.55 3.64 3.84 4.01 4.14 4.40 4.04 3.96 3.84 3.70 3.42 3.28 3.34 3.15 3.02 2.89 2.84 3.05 3.11 3.10 3.48 3.72 3.40 3.13 2.94 2.74
2.87 3.03 3.01 3.00 2.95 3.01 3.00 2.85 2.41 2.54 2.52 2.64 3.12 3.23 3.28 3.72 3.97 3.86 3.78 3.97 3.63 3.67 4.08 4.17 3.81 3.86 3.93 3.69 3.33 3.22 3.26 3.13 3.13 3.01 3.14 3.34 3.18 3.28 3.66 3.61 3.48 3.24 3.08
3.65 4.15 3.94 3.79 3.54 3.43 3.49 3.46 3.38 3.03 2.92 2.76 3.06 3.22 3.35 3.70 3.93 3.94 3.90 3.98 3.55 3.38 3.61 3.78 3.69 3.87 3.85 3.73 3.31 3.09 3.08 3.26 3.26 3.07 3.12 3.43 3.36 3.08 3.23 3.49 3.69 3.68 3.47
4.29 4.89 4.68 4.56 4.55 4.34 4.25 3.93 3.53 3.26 3.07 3.26 3.44 3.61 3.68 3.74 4.03 4.15 4.09 3.87 3.67 3.65 3.69 3.67 3.69 3.99 3.76 3.61 3.41 3.31 3.27 3.28 3.12 3.07 3.12 3.37 3.05 2.90 2.91 3.02 3.36 3.66 3.90
4.47 4.93 5.31 4.95 5.36 5.32 5.10 4.71 4.21 3.92 3.89 3.82 3.74 3.90 3.72 3.63 3.74 4.11 3.92 3.59 3.76 3.89 3.96 3.91 3.85 3.99 4.02 4.09 3.97 3.76 3.49 3.36 2.77 2.71 2.83 2.93 3.05 2.63 2.77 3.01 3.10 3.25 3.80
4.72 5.29 5.79 6.00 6.08 5.68 5.39 5.13 4.94 4.60 4.28 3.85 3.46 3.38 3.27 3.06 3.04 3.24 3.18 3.19 3.23 3.42 3.37 3.14 3.51 3.73 3.94 4.12 3.86 3.69 3.29 3.14 2.87 2.71 2.77 2.53 2.69 2.71 2.76 2.84 3.03 3.07 3.57
4.83 5.72 6.19 6.36 5.98 5.55 5.22 4.88 4.80 4.42 4.03 3.68 3.26 2.99 2.82 2.80 2.67 2.87 2.69 2.74 2.92 3.16 3.22 3.28 3.51 3.43 3.37 3.55 3.19 3.18 3.13 2.89 2.82 2.76 2.55 2.48 2.51 2.48 2.62 2.82 3.06 2.72 3.23
4.88 5.87 6.33 6.22 5.63 5.09 4.65 4.29 4.07 3.73 3.45 3.33 3.02 2.66 2.61 2.61 2.66 2.95 2.67 2.96 2.96 3.05 3.04 2.96 3.09 3.06 2.82 2.97 3.44 3.38 3.00 2.76 2.75 2.62 2.49 2.58 2.39 2.41 2.63 2.90 3.14 3.16 2.84
4.19 5.00 5.40 5.15 4.57 3.91 3.62 3.55 3.52 3.48 3.10 2.86 2.78 2.75 2.45 2.47 2.55 2.62 2.78 2.61 2.64 2.86 2.77 2.72 3.02 3.00 2.68 2.76 3.25 3.47 3.32 3.34 3.07 2.38 2.34 2.48 2.46 2.49 2.57 2.66 3.01 3.24 3.08
3.63 3.65 3.85 3.81 3.39 3.08 2.99 2.97 3.01 3.21 2.99 2.68 2.59 2.55 2.32 2.24 2.22 2.36 2.44 2.54 2.64 2.54 2.65 2.73 2.79 2.91 2.85 2.69 2.75 3.29 3.25 3.12 3.01 2.71 2.33 2.25 2.45 2.68 2.65 2.69 2.70 2.82 2.90
2.74 2.54 2.59 2.75 2.66 2.66 2.58 2.59 2.50 2.38 2.38 2.29 2.28 2.26 2.24 2.12 2.06 1.99 2.11 2.35 2.50 2.45 2.70 2.45 2.57 2.83 2.93 2.68 2.67 2.73 2.73 2.80 2.97 2.83 2.46 2.17 2.20 2.33 2.48 2.43 2.58 2.73 2.80
1.85 1.87 2.08 2.42 2.52 2.46 2.40 2.52 2.55 2.26 2.13 2.06 2.11 2.24 2.20 2.11 2.01 1.91 1.96 2.17 2.31 2.38 2.49 2.52 2.81 2.76 2.67 2.62 2.59 2.66 2.74 2.74 2.61 2.67 2.64 2.35 2.19 2.03 2.14 2.30 2.51 2.73 2.71
1.34 1.45 1.69 2.14 2.35 2.24 2.21 2.25 2.24 2.20 2.18 2.10 2.04 2.10 2.07 2.02 2.09 2.17 2.12 2.18 2.16 2.19 2.27 2.40 2.64 2.64 2.59 2.63 2.50 2.41 2.62 2.72 2.68 2.74 2.57 2.30 2.13 1.89 1.88 2.00 2.32 2.64 2.74